BREEZE-M DEB (TANK), 40884

Orbit data source: Space-Track

BREEZE-M DEB (TANK), 40884 is space debris in HEO originally from a launch on Fri, 28 Aug 2015 UTC launched from the Tyuratam Missile And Space Complex (TTMTR). Debris objects in space refer to the collection of defunct objects orbiting the Earth. Examples of debris include non-operational satellites, rocket bodies, and fragments generated from explosions, collisions, or faulty payload assembly.

Loading next visibility...
Identifier
40884, 2015-042C
Orbit
HEO
Country
Flag of CISCIS
Related business
Manufacturer
Khrunichev
Mission
Spacecraft
Bus & Motor
BRIZ TANK, Unknown motor
Mass
~1,000 kg wet, 1,000 kg dry
Launch date (UTC)
2015-08-28 (11 years ago)
Launch vehicle
Unknown
Launch site
Tyuratam Missile And Space Complex (TTMTR)
Object type
Payload
Rocket body
Debris
Shape & HBR
Torus, 2.0 m
Radar Cross Section
8.218 m², Large (>1 m²)

Expand to show TLE details & history
Last TLE update: 16 hours ago

TLE from 16 hours ago
0 BREEZE-M DEB (TANK)
1 40884U 15042C   26118.38406928  .00003239  00000-0  11979-2 0  9990
2 40884  50.7726  57.8787 5119709   9.1236 357.4172  5.36054943206060
Epoch: 2026-04-28T09:13Z
TLE epoch observation values (Epoch: 2026-04-28T09:13:03.585Z)
Latitude
-0.00006°
Longitude
63.2481°
Altitude
377.662 km
Speed
9.44 km/s
True Right ascension
03h 51m 29s
True Declination
0° 00' 00"
Sunlit
Object was in daylight at epoch
Visualization orbit readout
Latitude
Unknown
Longitude
Unknown
Altitude
Unknown
Speed
Unknown
Apparent Right ascension
Unknown
Apparent Declination
Unknown
Sunlit
N/A
Visualization observer readout
Local Sidereal Time
08:41:19
Azimuth
Unknown
Elevation
Unknown
Doppler factor
Unknown
Orbital elements
Apogee altitude
14,474.222 km
Perigee altitude
352.52 km
Semi-major axis
13,791.508 km
Eccentricity
0.51197
Inclination
50.7726°
RAAN
57.8787°
Arg. of periapsis
9.1236°
True anomaly
350.71238°
Mean anomaly
357.4172°
Eccentric anomaly
354.71555°
Mean motion
1.34006 °/min
Orbital period
268.64 mins
BSTAR
0.0011979
Loading maneuver chart data...
Computing Atmospheric mass density...
Loading historical data...
Loading historical data...
Loading historical data...
Loading historical data...
Loading historical data...
Loading historical data...
Loading historical data...
Other satellites on launch #42 in the year 2015 (2015-08-28 UTC)

Documentation

Showing up to 5 results
|